Wind_Speed
9 9 9 9 9 10 10 11 11 12 12 13 13 13 14 14 15 16 16 17 17 18 19 19 20 20 20 20 21 21 21 21 21 21 21 21 20 20 20 20 20 20 20
10 10 10 10 11 11 12 12 13 14 14 14 15 15 16 16 17 17 18 18 18 19 19 20 20 21 21 22 22 22 22 22 22 22 22 22 22 22 22 22 22 22 21
11 11 11 11 12 12 13 14 15 15 15 16 16 17 17 17 18 18 18 18 19 19 19 20 20 21 22 22 23 23 23 23 23 23 23 23 23 22 22 23 23 22 22
11 12 12 12 12 13 14 15 15 16 16 16 17 17 17 17 17 17 18 18 19 19 20 20 21 21 22 22 23 23 23 23 23 23 23 23 23 23 23 23 23 23 23
11 12 12 13 13 14 15 15 16 16 16 16 17 17 17 17 17 18 18 18 19 19 20 20 20 21 21 22 22 23 23 23 23 24 24 24 24 23 23 23 23 23 23
13 13 14 14 15 15 16 16 16 16 17 17 17 17 18 18 18 19 19 19 20 20 20 20 21 21 21 22 22 23 23 23 24 24 24 24 24 24 24 23 23 23 23
14 14 15 16 16 17 17 18 18 18 18 18 18 19 19 19 19 20 20 20 21 21 22 22 22 22 23 23 24 24 24 25 25 25 25 25 25 25 25 25 25 24 24
15 16 16 17 17 18 18 19 19 19 19 19 19 20 20 20 21 21 22 22 23 23 24 24 24 25 25 25 26 26 27 27 27 27 27 27 27 27 27 27 27 26 26
14 15 16 17 17 17 18 18 18 19 19 19 20 21 21 22 22 23 24 24 25 25 26 26 26 27 27 27 28 28 29 29 29 29 30 30 30 30 30 29 29 29 29
14 15 16 16 17 17 18 18 19 19 20 21 21 22 22 23 24 24 25 25 26 26 27 27 28 28 29 29 29 30 30 31 31 31 31 32 32 32 32 32 32 32 32
15 16 17 17 18 18 19 19 20 20 21 22 22 22 23 23 24 24 25 26 26 27 27 28 29 29 30 30 31 31 32 32 32 33 33 34 34 35 35 35 35 36 36
18 18 19 19 20 20 20 21 21 22 22 22 22 22 23 23 24 24 25 25 26 27 28 29 29 30 30 31 32 32 33 33 34 34 35 36 36 37 37 38 38 39 39
20 20 21 21 22 22 22 22 22 22 22 22 22 22 23 23 24 25 26 27 28 28 29 30 31 31 31 32 33 33 34 34 35 36 37 37 38 39 39 40 41 41 42
22 22 22 23 23 23 23 23 23 22 22 22 22 23 23 24 25 26 27 28 29 30 31 31 32 32 33 33 34 35 35 35 36 37 37 38 38 39 40 41 42 42 43
23 23 24 24 24 24 24 23 23 23 23 23 23 24 24 25 26 27 28 29 30 31 32 33 33 34 34 35 36 36 37 38 38 39 39 40 40 40 41 42 42 43 44
25 25 25 25 25 25 25 24 24 24 24 24 24 25 26 27 28 29 30 31 32 33 33 34 34 35 36 36 37 37 38 39 40 40 41 41 41 42 42 42 43 43 44
26 26 26 26 26 26 26 25 25 25 25 26 26 27 27 28 30 31 32 33 34 34 35 35 36 36 37 38 38 39 39 40 41 41 41 42 42 43 43 43 43 44 44
27 27 28 28 28 27 27 27 27 27 27 27 28 29 29 30 31 32 33 34 34 35 36 36 37 37 38 38 39 40 40 40 41 41 41 42 42 43 43 43 44 44 44
28 29 29 29 29 29 28 28 28 28 28 29 29 30 31 32 33 33 34 35 35 36 36 37 37 38 39 39 39 40 40 41 41 41 41 41 42 42 43 43 44 44 45
30 30 30 30 30 30 30 29 29 30 30 30 31 31 32 33 34 35 35 36 37 37 37 38 39 39 39 39 39 40 40 40 40 41 42 42 43 44 44 45 46 46 47
31 31 31 31 31 31 31 31 31 31 31 32 32 33 34 35 35 36 37 38 38 39 39 39 40 41 41 40 39 40 40 41 42 43 44 45 46 47 47 48 49 50 51
31 31 31 32 32 32 32 33 33 33 32 33 34 35 36 37 37 38 39 39 40 41 41 41 42 42 43 43 42 41 41 42 44 45 46 47 48 50 51 52 53 54 55
32 32 32 32 32 32 33 34 34 34 34 35 36 37 38 39 40 40 41 41 42 43 43 43 43 44 44 45 45 45 45 44 45 45 47 49 50 52 53 55 56 58 59
32 32 32 32 33 33 34 34 35 35 36 37 38 39 40 41 41 42 43 43 44 45 45 45 45 46 46 47 48 49 50 50 50 48 47 50 52 53 55 57 58 60 62
32 32 33 33 33 34 34 35 36 37 37 38 39 40 41 42 43 44 45 45 46 47 47 47 47 48 48 49 50 51 52 53 54 55 53 52 53 55 57 58 60 61 63
33 33 33 33 34 35 35 36 37 38 39 40 41 42 43 44 45 46 47 47 48 48 48 49 49 49 50 51 52 53 54 55 57 59 59 58 57 57 57 58 60 62 63
Wind_Direction
236 242 248 254 259 264 269 272 275 278 280 281 282 283 283 284 284 285 286 286 286 286 286 286 285 284 282 281 279 278 276 275 274 272 271 270 269 268 268 267 265 264 262
245 249 254 258 263 268 272 274 277 278 280 281 283 284 285 285 285 285 285 284 284 283 283 283 282 282 281 279 278 277 275 273 272 271 270 269 268 267 266 266 265 263 262
250 254 258 261 266 271 274 276 278 279 280 282 284 285 286 287 287 287 286 285 285 284 283 283 282 281 281 280 278 278 276 275 273 272 271 270 269 268 266 266 265 264 263
257 260 262 265 268 272 275 277 278 280 283 285 286 287 288 288 289 289 289 288 287 287 286 285 285 284 283 282 280 279 278 276 275 274 273 272 271 270 268 268 267 266 265
263 265 268 271 273 276 278 279 280 282 284 287 288 289 290 290 290 291 291 291 291 291 290 289 288 287 286 284 282 281 280 278 277 276 275 274 273 272 271 270 270 269 268
266 270 272 275 276 278 281 283 283 285 287 288 289 290 290 291 291 291 292 292 292 292 292 291 290 289 288 286 284 283 282 281 280 278 277 276 275 274 273 272 272 271 271
268 271 274 276 278 280 282 284 285 287 288 288 289 290 291 292 293 293 293 293 292 292 291 291 290 289 288 287 285 284 283 282 280 279 279 278 277 276 275 274 273 273 273
270 271 273 275 277 280 282 283 284 285 287 288 289 290 291 292 293 293 292 292 292 291 290 290 289 288 288 287 286 285 284 282 281 280 279 278 277 276 275 275 274 274 274
272 274 275 277 279 280 282 283 284 286 287 289 290 291 292 292 293 293 293 292 292 291 290 289 288 287 286 286 286 285 284 283 281 279 278 277 276 275 275 274 274 274 273
276 278 279 280 281 282 283 284 285 286 287 289 289 290 291 291 292 292 292 292 291 291 290 289 288 287 286 285 284 284 283 282 281 279 278 277 276 275 274 273 273 273 272
280 281 281 282 283 284 285 286 287 287 288 289 289 290 290 291 292 292 293 293 292 291 291 290 289 288 287 285 284 283 282 281 280 278 277 275 274 273 273 272 272 272 272
283 283 284 284 285 286 286 287 287 288 289 290 290 290 291 292 293 294 294 294 294 293 292 291 290 289 287 286 285 284 282 281 280 278 276 274 273 272 272 271 271 271 270
283 284 285 285 285 286 287 287 288 289 290 290 290 291 292 293 294 294 295 295 294 294 293 292 291 290 289 288 287 286 284 283 281 279 278 276 275 273 272 272 271 271 270
284 284 285 285 285 285 286 287 287 288 289 289 290 291 292 293 294 295 296 296 295 294 293 292 291 290 289 288 287 287 285 284 283 281 280 278 277 277 276 275 274 273 272
283 284 285 285 284 285 286 286 286 286 287 288 289 290 292 293 294 295 296 296 296 295 294 292 292 291 290 289 289 288 287 285 283 282 281 280 279 278 277 276 276 275 274
283 284 284 284 284 284 285 285 285 286 287 288 289 290 291 293 294 295 296 296 296 295 295 294 293 292 291 291 290 288 287 285 284 283 282 281 280 279 278 277 277 276 275
282 282 282 283 283 283 283 284 284 286 287 288 289 290 291 292 294 295 296 296 296 296 295 294 293 292 291 291 290 289 288 286 285 284 283 282 281 280 279 279 278 277 277
281 281 282 282 282 281 281 282 283 285 286 287 289 290 291 292 294 295 296 296 296 295 294 294 293 292 292 291 290 289 288 286 285 284 284 283 282 282 281 280 279 279 279
281 281 281 280 280 280 281 281 282 283 285 287 288 290 291 292 293 294 295 296 296 295 295 294 293 292 292 291 290 289 287 286 285 284 283 283 282 282 282 281 281 280 280
280 279 279 279 279 279 280 280 281 283 285 286 287 288 290 291 293 294 295 296 296 296 295 295 294 293 292 291 290 288 287 285 285 284 283 283 282 282 281 281 281 280 280
280 279 279 278 277 278 278 279 281 282 284 285 287 288 290 291 293 294 295 296 296 296 295 295 294 293 292 291 289 288 286 285 284 283 283 282 282 282 281 281 280 280 280
280 279 278 277 277 277 278 279 280 282 283 285 287 289 290 292 293 295 296 296 296 296 296 295 294 293 292 290 288 286 285 284 284 284 284 283 283 283 282 282 282 281 281
280 278 277 276 276 276 278 279 280 282 284 286 288 289 290 292 294 296 296 297 297 297 297 296 295 294 292 291 289 287 285 282 281 281 282 283 283 283 283 284 284 284 283
279 278 276 275 275 276 277 278 281 282 284 286 288 290 291 293 295 296 297 298 298 298 298 298 296 295 293 292 291 290 288 286 284 280 279 280 280 281 281 282 282 283 283
277 276 275 274 275 276 277 279 281 283 285 287 289 291 293 294 295 296 297 298 298 298 298 298 297 296 294 293 292 291 290 289 288 286 283 282 282 283 283 283 283 283 283
276 274 273 274 275 276 277 279 281 283 286 288 290 292 293 294 295 296 298 298 299 299 298 298 297 296 295 294 293 292 291 290 289 288 287 286 285 284 284 285 285 284 284
Height
5882 5882 5882 5882 5882 5882 5882 5882 5882 5881 5881 5880 5880 5879 5879 5878 5877 5877 5876 5876 5875 5874 5873 5873 5872 5872 5871 5870 5870 5869 5869 5869 5869 5868 5868 5868 5868 5868 5867 5867 5867 5867 5867
5881 5881 5881 5881 5881 5881 5880 5880 5880 5879 5879 5878 5877 5877 5876 5875 5875 5874 5873 5873 5872 5871 5870 5870 5869 5868 5868 5867 5866 5866 5866 5865 5865 5865 5864 5864 5864 5864 5863 5863 5863 5863 5863
5879 5879 5879 5879 5879 5879 5878 5878 5877 5877 5876 5875 5875 5874 5873 5872 5872 5871 5870 5869 5869 5868 5867 5866 5866 5865 5864 5864 5863 5863 5862 5862 5861 5861 5861 5860 5860 5860 5860 5860 5859 5859 5859
5878 5878 5878 5877 5877 5877 5876 5876 5875 5874 5873 5873 5872 5871 5870 5869 5869 5868 5867 5866 5866 5865 5864 5863 5862 5862 5861 5860 5860 5859 5859 5859 5858 5857 5857 5857 5857 5856 5856 5856 5856 5856 5856
5876 5876 5876 5876 5875 5875 5874 5873 5873 5872 5871 5870 5869 5868 5867 5867 5866 5865 5864 5863 5863 5862 5861 5860 5859 5859 5858 5857 5857 5856 5856 5855 5855 5854 5854 5853 5853 5853 5853 5852 5852 5852 5852
5874 5874 5874 5873 5873 5872 5872 5871 5870 5869 5868 5867 5867 5866 5865 5864 5863 5862 5861 5861 5860 5859 5858 5857 5856 5856 5855 5854 5854 5853 5853 5852 5852 5851 5851 5850 5850 5849 5849 5849 5849 5849 5849
5872 5872 5871 5871 5871 5870 5869 5868 5868 5867 5865 5864 5864 5863 5862 5861 5860 5859 5858 5857 5857 5856 5855 5854 5853 5852 5852 5851 5850 5850 5849 5848 5848 5847 5847 5847 5846 5846 5845 5845 5845 5845 5845
5870 5869 5869 5868 5868 5867 5866 5865 5864 5863 5862 5861 5860 5859 5858 5857 5856 5856 5855 5854 5853 5852 5851 5850 5849 5849 5848 5847 5846 5846 5845 5844 5844 5843 5843 5842 5842 5842 5841 5841 5841 5841 5841
5867 5867 5866 5865 5865 5864 5863 5862 5861 5860 5859 5858 5857 5856 5855 5854 5853 5852 5851 5850 5849 5848 5847 5846 5845 5844 5843 5842 5841 5841 5840 5840 5839 5839 5838 5838 5837 5837 5836 5836 5836 5836 5836
5865 5864 5863 5863 5862 5861 5860 5859 5858 5857 5855 5854 5853 5852 5851 5850 5848 5847 5846 5845 5844 5843 5842 5841 5840 5839 5838 5837 5836 5835 5835 5834 5834 5833 5833 5832 5832 5831 5831 5831 5830 5830 5830
5862 5861 5860 5860 5859 5858 5857 5855 5854 5853 5852 5850 5849 5848 5847 5845 5844 5843 5842 5840 5839 5838 5837 5835 5834 5833 5832 5831 5830 5829 5829 5828 5827 5826 5826 5825 5825 5824 5824 5824 5823 5823 5823
5859 5858 5857 5856 5855 5854 5853 5852 5850 5849 5847 5846 5845 5843 5842 5841 5840 5838 5837 5835 5834 5833 5831 5830 5829 5827 5826 5825 5824 5823 5822 5821 5820 5819 5819 5818 5817 5817 5816 5816 5815 5815 5815
5855 5854 5853 5852 5851 5850 5849 5847 5846 5845 5843 5842 5840 5839 5838 5836 5835 5833 5832 5830 5829 5827 5826 5824 5823 5822 5820 5819 5818 5817 5815 5814 5813 5812 5811 5810 5809 5808 5808 5808 5807 5807 5807
5851 5850 5849 5848 5847 5846 5844 5843 5842 5840 5839 5837 5836 5834 5833 5831 5830 5828 5827 5825 5823 5821 5820 5818 5817 5815 5814 5812 5811 5809 5808 5807 5805 5804 5803 5802 5801 5800 5800 5799 5798 5798 5797
5846 5845 5844 5843 5842 5841 5840 5838 5837 5835 5834 5833 5831 5830 5828 5827 5825 5823 5821 5819 5817 5815 5813 5812 5810 5808 5807 5805 5803 5802 5800 5798 5797 5795 5794 5793 5792 5791 5791 5790 5789 5788 5788
5842 5841 5840 5838 5837 5836 5835 5833 5832 5830 5829 5828 5826 5825 5823 5821 5819 5817 5815 5813 5811 5809 5807 5805 5803 5801 5799 5797 5796 5794 5792 5790 5788 5786 5785 5784 5783 5782 5781 5780 5779 5778 5778
5837 5836 5834 5833 5832 5831 5829 5828 5827 5825 5824 5822 5821 5819 5817 5815 5813 5811 5809 5807 5805 5802 5800 5798 5796 5793 5791 5789 5787 5785 5783 5781 5779 5777 5776 5774 5773 5772 5771 5770 5769 5768 5767
5832 5830 5829 5828 5826 5825 5824 5822 5821 5820 5818 5817 5815 5813 5812 5810 5807 5805 5803 5800 5798 5795 5793 5791 5788 5786 5784 5782 5779 5777 5774 5772 5770 5768 5766 5764 5763 5761 5760 5759 5758 5757 5756
5826 5825 5823 5822 5821 5819 5818 5817 5815 5814 5812 5811 5809 5807 5805 5803 5801 5799 5796 5793 5791 5788 5786 5783 5781 5779 5776 5774 5771 5768 5766 5763 5761 5759 5757 5755 5753 5752 5750 5748 5747 5746 5745
5820 5819 5817 5816 5815 5813 5812 5811 5809 5808 5806 5805 5803 5801 5799 5797 5794 5792 5789 5787 5784 5781 5778 5776 5773 5770 5768 5766 5763 5760 5757 5755 5752 5750 5748 5746 5744 5742 5740 5738 5736 5735 5733
5814 5813 5811 5810 5808 5807 5806 5805 5803 5802 5800 5798 5796 5794 5792 5790 5787 5785 5782 5779 5776 5773 5770 5767 5764 5762 5759 5757 5755 5752 5749 5746 5744 5741 5738 5736 5733 5731 5729 5727 5725 5723 5721
5807 5806 5804 5803 5802 5801 5799 5798 5797 5795 5793 5792 5790 5787 5785 5782 5780 5777 5774 5771 5768 5765 5762 5759 5756 5752 5749 5747 5745 5743 5741 5738 5734 5731 5728 5725 5722 5720 5717 5715 5712 5710 5707
5800 5799 5798 5796 5795 5794 5793 5791 5790 5788 5786 5785 5783 5780 5777 5775 5772 5769 5766 5763 5759 5756 5753 5749 5746 5743 5739 5736 5733 5732 5730 5729 5726 5724 5719 5715 5711 5708 5705 5702 5698 5695 5692
5793 5792 5791 5789 5788 5787 5786 5784 5783 5781 5779 5777 5775 5772 5770 5767 5764 5760 5757 5754 5750 5747 5743 5740 5736 5732 5729 5725 5722 5719 5716 5713 5712 5713 5711 5706 5701 5697 5693 5690 5686 5681 5677
5786 5785 5784 5782 5781 5780 5778 5777 5775 5774 5772 5770 5767 5764 5761 5758 5755 5752 5748 5744 5741 5737 5733 5729 5725 5721 5718 5714 5710 5707 5703 5699 5695 5694 5695 5693 5689 5685 5680 5676 5671 5667 5662
5779 5778 5777 5775 5774 5772 5771 5769 5768 5766 5764 5761 5759 5756 5753 5749 5746 5742 5738 5734 5730 5726 5722 5718 5714 5710 5706 5702 5698 5694 5690 5686 5682 5678 5676 5675 5673 5671 5666 5661 5655 5650 5646